| time (UTC) | temp F | wind direction | speed knots | gust knots | rain 1hr in | rain 24hr in | rain mn in | humidity % | barometer mb |
| 20260505233335 | 62 | 232 | 0.9 | 4.3 | 0.00 | 0.00 | 0.00 | 68 | 1013.4 |
| 20260505230324 | 62 | 327 | 0.9 | 2.6 | 0.00 | 0.00 | 0.00 | 68 | 1013.4 |
| 20260505223328 | 62 | 285 | 0.9 | 2.6 | 0.00 | 0.00 | 0.00 | 69 | 1013.6 |
| 20260505220337 | 61 | 32 | 2.6 | 4.3 | 0.00 | 0.00 | 0.00 | 69 | 1013.7 |
| 20260505213340 | 61 | 32 | 2.6 | 6.1 | 0.00 | 0.00 | 0.00 | 70 | 1014.0 |
| 20260505210324 | 62 | 355 | 0.0 | 1.7 | 0.00 | 0.00 | 0.00 | 69 | 1013.8 |
| 20260505203329 | 61 | 273 | 0.9 | 1.7 | 0.00 | 0.00 | 0.00 | 70 | 1013.9 |
| 20260505200344 | 61 | 255 | 0.9 | 4.3 | 0.00 | 0.00 | 0.00 | 71 | 1014.1 |
| 20260505193318 | 60 | 261 | 0.9 | 3.5 | 0.00 | 0.00 | 0.00 | 72 | 1014.2 |
| 20260505190336 | 60 | 235 | 3.5 | 4.3 | 0.00 | 0.00 | 0.00 | 71 | 1014.1 |
| 20260505183338 | 58 | 333 | 0.0 | 3.5 | 0.00 | 0.00 | 0.00 | 72 | 1014.1 |
| 20260505180346 | 58 | 360 | 1.7 | 4.3 | 0.00 | 0.00 | 0.00 | 72 | 1014.1 |
| 20260505173328 | 58 | 360 | 0.9 | 2.6 | 0.00 | 0.00 | 0.00 | 70 | 1013.6 |
| 20260505170323 | 58 | 360 | 2.6 | 3.5 | 0.00 | 0.00 | 0.00 | 70 | 1013.6 |
| 20260505163328 | 57 | 134 | 0.0 | 2.6 | 0.00 | 0.00 | 0.00 | 72 | 1013.3 |
| 20260505160323 | 57 | 360 | 0.0 | 0.0 | 0.00 | 0.00 | 0.00 | 73 | 1013.4 |
| 20260505153326 | 56 | 360 | 1.7 | 2.6 | 0.00 | 0.00 | 0.00 | 74 | 1013.1 |
| 20260505150318 | 55 | 360 | 0.0 | 2.6 | 0.00 | 0.00 | 0.00 | 75 | 1013.0 |
| 20260505140334 | 54 | 360 | 0.0 | 0.0 | 0.00 | 0.00 | 0.00 | 77 | 1012.6 |
| 20260505123335 | 54 | 360 | 0.0 | 0.0 | 0.00 | 0.00 | 0.00 | 79 | 1012.6 |
| 20260505120352 | 53 | 360 | 0.0 | 0.0 | 0.00 | 0.00 | 0.00 | 79 | 1012.6 |
| 20260505113330 | 54 | 360 | 0.0 | 0.0 | 0.00 | 0.00 | 0.00 | 79 | 1012.6 |
| 20260505110322 | 54 | 360 | 0.0 | 0.0 | 0.00 | 0.00 | 0.00 | 77 | 1012.6 |
| 20260505100324 | 54 | 360 | 0.0 | 0.9 | 0.00 | 0.00 | 0.00 | 75 | 1012.7 |
| 20260505093328 | 55 | 261 | 0.0 | 1.7 | 0.00 | 0.00 | 0.00 | 73 | 1013.0 |
| 20260505090324 | 55 | 360 | 0.9 | 5.2 | 0.00 | 0.00 | 0.00 | 70 | 1013.1 |
| 20260505083321 | 55 | 360 | 0.9 | 2.6 | 0.00 | 0.00 | 0.00 | 69 | 1013.5 |
| 20260505080329 | 55 | 360 | 1.7 | 5.2 | 0.00 | 0.00 | 0.00 | 69 | 1013.6 |
| 20260505073327 | 56 | 360 | 0.0 | 3.5 | 0.00 | 0.00 | 0.00 | 72 | 1013.5 |
| 20260505070323 | 55 | 360 | 0.0 | 0.9 | 0.00 | 0.00 | 0.00 | 77 | 1013.1 |
| 20260505063329 | 56 | 360 | 0.0 | 1.7 | 0.00 | 0.00 | 0.00 | 78 | 1013.1 |
| 20260505060329 | 56 | 360 | 0.0 | 2.6 | 0.00 | 0.00 | 0.00 | 77 | 1013.0 |
| 20260505053334 | 57 | 360 | 0.9 | 3.5 | 0.00 | 0.00 | 0.00 | 75 | 1013.3 |
| 20260505050329 | 57 | 360 | 0.9 | 2.6 | 0.00 | 0.00 | 0.00 | 74 | 1013.5 |
| 20260505040341 | 58 | 360 | 1.7 | 3.5 | 0.00 | 0.00 | 0.00 | 71 | 1012.8 |
| 20260505033319 | 59 | 360 | 0.0 | 4.3 | 0.00 | 0.00 | 0.00 | 68 | 1012.3 |
| 20260505030340 | 60 | 281 | 0.0 | 4.3 | 0.00 | 0.00 | 0.00 | 65 | 1012.3 |
| 20260505023320 | 60 | 360 | 0.9 | 3.5 | 0.00 | 0.00 | 0.00 | 61 | 1012.5 |
| 20260505020341 | 61 | 328 | 2.6 | 7.8 | 0.00 | 0.00 | 0.00 | 60 | 1012.1 |
| 20260505013318 | 62 | 320 | 1.7 | 7.0 | 0.00 | 0.00 | 0.00 | 60 | 1012.2 |
| 20260505010318 | 63 | 5 | 2.6 | 6.1 | 0.00 | 0.00 | 0.00 | 62 | 1012.5 |
| 20260505003340 | 63 | 355 | 1.7 | 4.3 | 0.00 | 0.00 | 0.00 | 62 | 1012.5 |
| 20260505000355 | 62 | 270 | 2.6 | 5.2 | 0.00 | 0.00 | 0.00 | 65 | 1012.5 |